| time (UTC) | temp F | wind direction | speed MPH | gust MPH | rain 1hr in | rain 24hr in | rain mn in | humidity % | barometer mb |
| 20260505095056 | 64 | 248 | 2.0 | 5.0 | 0.00 | 0.07 | 0.00 | 63 | 1009.7 |
| 20260505094016 | 65 | 225 | 2.0 | 5.0 | 0.00 | 0.07 | 0.00 | 62 | 1009.4 |
| 20260505093036 | 65 | 248 | 2.0 | 6.0 | 0.00 | 0.07 | 0.00 | 61 | 1009.0 |
| 20260505092016 | 65 | 248 | 4.0 | 9.0 | 0.00 | 0.07 | 0.00 | 61 | 1009.0 |
| 20260505091036 | 65 | 248 | 4.0 | 9.0 | 0.00 | 0.07 | 0.00 | 61 | 1009.0 |
| 20260505090016 | 65 | 225 | 5.0 | 12.0 | 0.00 | 0.07 | 0.00 | 60 | 1008.6 |
| 20260505085016 | 65 | 248 | 5.0 | 12.0 | 0.00 | 0.07 | 0.00 | 60 | 1008.6 |
| 20260505084016 | 66 | 248 | 5.0 | 14.0 | 0.00 | 0.07 | 0.00 | 60 | 1008.6 |
| 20260505083016 | 66 | 248 | 5.0 | 13.0 | 0.00 | 0.07 | 0.00 | 59 | 1008.6 |
| 20260505082016 | 66 | 248 | 6.0 | 11.0 | 0.00 | 0.07 | 0.00 | 59 | 1008.5 |
| 20260505081016 | 66 | 248 | 6.0 | 13.0 | 0.00 | 0.07 | 0.00 | 59 | 1008.5 |
| 20260505080016 | 66 | 248 | 5.0 | 13.0 | 0.00 | 0.07 | 0.00 | 59 | 1008.4 |
| 20260505075016 | 66 | 248 | 5.0 | 12.0 | 0.00 | 0.07 | 0.00 | 59 | 1008.6 |
| 20260505074036 | 66 | 248 | 5.0 | 11.0 | 0.00 | 0.07 | 0.00 | 59 | 1008.5 |
| 20260505073016 | 66 | 248 | 5.0 | 10.0 | 0.00 | 0.07 | 0.00 | 59 | 1008.5 |
| 20260505072016 | 66 | 248 | 5.0 | 10.0 | 0.00 | 0.07 | 0.00 | 59 | 1008.3 |
| 20260505071016 | 67 | 248 | 5.0 | 11.0 | 0.00 | 0.07 | 0.00 | 58 | 1008.4 |
| 20260505070016 | 67 | 248 | 6.0 | 12.0 | 0.00 | 0.07 | 0.00 | 58 | 1008.3 |
| 20260505065016 | 67 | 248 | 5.0 | 13.0 | 0.00 | 0.07 | 0.00 | 58 | 1007.9 |
| 20260505064016 | 67 | 248 | 7.0 | 13.0 | 0.00 | 0.07 | 0.00 | 58 | 1008.0 |
| 20260505063016 | 67 | 248 | 6.0 | 15.0 | 0.00 | 0.07 | 0.00 | 58 | 1008.1 |
| 20260505062016 | 67 | 248 | 5.0 | 11.0 | 0.00 | 0.07 | 0.00 | 59 | 1008.1 |
| 20260505061036 | 66 | 248 | 5.0 | 10.0 | 0.00 | 0.07 | 0.00 | 59 | 1008.0 |
| 20260505060016 | 66 | 248 | 4.0 | 13.0 | 0.00 | 0.07 | 0.00 | 59 | 1007.8 |
| 20260505055016 | 66 | 248 | 5.0 | 14.0 | 0.00 | 0.07 | 0.00 | 60 | 1007.8 |
| 20260505054016 | 66 | 248 | 5.0 | 13.0 | 0.00 | 0.07 | 0.00 | 60 | 1007.8 |
| 20260505053016 | 66 | 248 | 4.0 | 10.0 | 0.00 | 0.07 | 0.00 | 60 | 1007.9 |
| 20260505052016 | 66 | 248 | 4.0 | 7.0 | 0.00 | 0.07 | 0.00 | 60 | 1007.9 |
| 20260505051016 | 66 | 248 | 3.0 | 8.0 | 0.00 | 0.07 | 0.00 | 60 | 1007.9 |
| 20260505041016 | 67 | 248 | 2.0 | 6.0 | 0.00 | 0.07 | 0.00 | 58 | 1008.2 |
| 20260505040016 | 67 | 225 | 3.0 | 7.0 | 0.00 | 0.07 | 0.00 | 57 | 1008.4 |
| 20260505035016 | 67 | 225 | 2.0 | 6.0 | 0.00 | 0.07 | 0.07 | 58 | 1008.4 |
| 20260505034016 | 67 | 225 | 2.0 | 6.0 | 0.00 | 0.07 | 0.07 | 58 | 1008.3 |
| 20260505033016 | 67 | 225 | 2.0 | 5.0 | 0.00 | 0.07 | 0.07 | 57 | 1008.3 |
| 20260505032016 | 68 | 225 | 1.0 | 3.0 | 0.00 | 0.07 | 0.07 | 57 | 1008.1 |
| 20260505031036 | 68 | 225 | 2.0 | 4.0 | 0.00 | 0.07 | 0.07 | 56 | 1008.0 |
| 20260505030016 | 69 | 225 | 1.0 | 5.0 | 0.00 | 0.07 | 0.07 | 55 | 1007.9 |
| 20260505025036 | 69 | 225 | 2.0 | 6.0 | 0.00 | 0.07 | 0.07 | 54 | 1007.7 |
| 20260505024016 | 69 | 248 | 3.0 | 5.0 | 0.00 | 0.07 | 0.07 | 53 | 1007.6 |
| 20260505023037 | 70 | 225 | 2.0 | 9.0 | 0.00 | 0.07 | 0.07 | 53 | 1007.2 |
| 20260505022016 | 70 | 225 | 2.0 | 5.0 | 0.00 | 0.07 | 0.07 | 52 | 1007.1 |
| 20260505021016 | 70 | 203 | 2.0 | 5.0 | 0.00 | 0.07 | 0.07 | 52 | 1006.9 |
| 20260505020016 | 71 | 225 | 2.0 | 5.0 | 0.00 | 0.07 | 0.07 | 51 | 1006.8 |
| 20260505015016 | 71 | 225 | 2.0 | 7.0 | 0.00 | 0.07 | 0.07 | 50 | 1006.7 |
| 20260505014016 | 72 | 225 | 3.0 | 8.0 | 0.00 | 0.07 | 0.07 | 49 | 1006.4 |
| 20260505013016 | 72 | 248 | 3.0 | 9.0 | 0.00 | 0.07 | 0.07 | 49 | 1006.3 |
| 20260505012016 | 72 | 248 | 4.0 | 9.0 | 0.00 | 0.07 | 0.07 | 48 | 1006.0 |
| 20260505011016 | 72 | 248 | 4.0 | 10.0 | 0.00 | 0.07 | 0.07 | 49 | 1005.9 |
| 20260505010016 | 73 | 248 | 5.0 | 15.0 | 0.00 | 0.07 | 0.07 | 48 | 1006.2 |
| 20260505005016 | 73 | 248 | 4.0 | 10.0 | 0.00 | 0.07 | 0.07 | 50 | 1006.0 |
| 20260505004016 | 73 | 248 | 4.0 | 11.0 | 0.00 | 0.07 | 0.07 | 50 | 1006.1 |
| 20260505003036 | 74 | 248 | 4.0 | 10.0 | 0.00 | 0.07 | 0.07 | 50 | 1006.0 |
| 20260505002016 | 74 | 248 | 4.0 | 10.0 | 0.00 | 0.07 | 0.07 | 50 | 1005.9 |
| 20260505001016 | 74 | 248 | 4.0 | 8.0 | 0.00 | 0.07 | 0.07 | 49 | 1005.9 |
| 20260505000016 | 75 | 248 | 4.0 | 11.0 | 0.00 | 0.07 | 0.07 | 48 | 1006.2 |
| 20260504235017 | 75 | 248 | 5.0 | 12.0 | 0.00 | 0.07 | 0.07 | 47 | 1006.2 |
| 20260504234016 | 76 | 248 | 5.0 | 13.0 | 0.00 | 0.07 | 0.07 | 47 | 1006.3 |
| 20260504233016 | 76 | 248 | 4.0 | 11.0 | 0.00 | 0.07 | 0.07 | 46 | 1006.7 |
| 20260504232016 | 76 | 248 | 5.0 | 14.0 | 0.00 | 0.07 | 0.07 | 45 | 1006.9 |
| 20260504231016 | 77 | 248 | 4.0 | 12.0 | 0.00 | 0.07 | 0.07 | 46 | 1007.2 |
| 20260504230036 | 77 | 225 | 5.0 | 12.0 | 0.00 | 0.07 | 0.07 | 46 | 1007.4 |
| 20260504225016 | 77 | 225 | 6.0 | 12.0 | 0.00 | 0.07 | 0.07 | 46 | 1007.4 |
| 20260504224016 | 77 | 248 | 6.0 | 13.0 | 0.00 | 0.07 | 0.07 | 45 | 1007.6 |
| 20260504223016 | 77 | 248 | 6.0 | 13.0 | 0.00 | 0.07 | 0.07 | 45 | 1007.7 |
| 20260504222036 | 77 | 248 | 7.0 | 14.0 | 0.00 | 0.07 | 0.07 | 45 | 1007.9 |
| 20260504221036 | 78 | 248 | 8.0 | 15.0 | 0.00 | 0.07 | 0.07 | 45 | 1008.1 |
| 20260504220016 | 78 | 248 | 7.0 | 12.0 | 0.00 | 0.07 | 0.07 | 44 | 1008.0 |
| 20260504215036 | 78 | 248 | 8.0 | 15.0 | 0.00 | 0.07 | 0.07 | 44 | 1008.1 |
| 20260504214016 | 79 | 248 | 8.0 | 20.0 | 0.00 | 0.07 | 0.07 | 45 | 1008.0 |
| 20260504213036 | 79 | 225 | 7.0 | 19.0 | 0.00 | 0.07 | 0.07 | 45 | 1008.0 |
| 20260504212016 | 79 | 248 | 7.0 | 14.0 | 0.00 | 0.07 | 0.07 | 45 | 1008.2 |
| 20260504211016 | 81 | 248 | 7.0 | 13.0 | 0.00 | 0.07 | 0.07 | 45 | 1008.2 |
| 20260504210036 | 80 | 248 | 7.0 | 18.0 | 0.00 | 0.07 | 0.07 | 45 | 1008.3 |
| 20260504205016 | 80 | 248 | 6.0 | 15.0 | 0.00 | 0.07 | 0.07 | 46 | 1008.2 |
| 20260504204016 | 81 | 248 | 7.0 | 16.0 | 0.00 | 0.07 | 0.07 | 45 | 1008.3 |
| 20260504203016 | 81 | 248 | 7.0 | 15.0 | 0.00 | 0.07 | 0.07 | 47 | 1008.3 |
| 20260504202016 | 79 | 248 | 8.0 | 15.0 | 0.00 | 0.07 | 0.07 | 47 | 1008.4 |
| 20260504201016 | 80 | 248 | 7.0 | 15.0 | 0.00 | 0.07 | 0.07 | 45 | 1008.5 |
| 20260504200056 | 80 | 248 | 8.0 | 18.0 | 0.00 | 0.07 | 0.07 | 45 | 1008.6 |
| 20260504195016 | 80 | 248 | 7.0 | 17.0 | 0.00 | 0.07 | 0.07 | 44 | 1008.8 |
| 20260504194016 | 81 | 248 | 8.0 | 18.0 | 0.00 | 0.07 | 0.07 | 43 | 1009.0 |
| 20260504193016 | 81 | 248 | 8.0 | 18.0 | 0.00 | 0.07 | 0.07 | 45 | 1009.1 |
| 20260504192016 | 81 | 248 | 6.0 | 15.0 | 0.00 | 0.07 | 0.07 | 46 | 1009.2 |
| 20260504191016 | 80 | 248 | 7.0 | 16.0 | 0.00 | 0.07 | 0.07 | 46 | 1009.3 |
| 20260504190016 | 80 | 248 | 7.0 | 15.0 | 0.00 | 0.07 | 0.07 | 46 | 1009.3 |
| 20260504185016 | 80 | 248 | 8.0 | 18.0 | 0.00 | 0.07 | 0.07 | 48 | 1009.5 |
| 20260504184016 | 80 | 248 | 6.0 | 18.0 | 0.00 | 0.07 | 0.07 | 49 | 1009.6 |
| 20260504183036 | 79 | 248 | 7.0 | 12.0 | 0.00 | 0.07 | 0.07 | 48 | 1009.7 |
| 20260504182016 | 79 | 248 | 8.0 | 15.0 | 0.00 | 0.07 | 0.07 | 48 | 1009.6 |
| 20260504181036 | 79 | 248 | 7.0 | 15.0 | 0.00 | 0.07 | 0.07 | 48 | 1009.9 |
| 20260504180016 | 79 | 248 | 6.0 | 16.0 | 0.00 | 0.07 | 0.07 | 48 | 1009.8 |
| 20260504175036 | 79 | 248 | 6.0 | 12.0 | 0.00 | 0.07 | 0.07 | 52 | 1009.7 |
| 20260504174056 | 78 | 248 | 7.0 | 15.0 | 0.00 | 0.07 | 0.07 | 48 | 1009.8 |
| 20260504173016 | 78 | 248 | 6.0 | 15.0 | 0.00 | 0.07 | 0.07 | 51 | 1009.7 |
| 20260504172016 | 77 | 248 | 7.0 | 14.0 | 0.00 | 0.07 | 0.07 | 52 | 1009.9 |
| 20260504171016 | 77 | 248 | 6.0 | 15.0 | 0.00 | 0.07 | 0.07 | 53 | 1009.8 |
| 20260504151016 | 70 | 248 | 7.0 | 15.0 | 0.00 | 0.07 | 0.07 | 59 | 1010.8 |
| 20260504141036 | 59 | 248 | 5.0 | 10.0 | 0.00 | 0.07 | 0.07 | 77 | 1011.0 |